Time,B instrument,Bx,By,Bz,sigma B,Ion instrument,Status,Tp_par,Tp_perp,carrot,r_sun,clat,clong,earth_he_angle,n_p,vp_x,vp_y,vp_z,vth_p_par,vth_p_perp
1980-05-31 00:00:37,1,34.35,13.1375,-31.025,0.766791,2,1,70387.0,59956.7,1695,0.31305772,2.0713339,136.33263,22.867783,129.66,322.512,3.96492,31.9447,34.0882,31.4613
1980-05-31 00:01:18,1,35.6833,13.4667,-29.9278,0.734889,2,1,62017.2,60783.7,1695,0.31305999,2.0719109,136.32893,22.871902,125.651,322.835,4.93222,35.3336,31.9974,31.6775
1980-05-31 00:01:58,1,36.1533,12.5467,-30.2267,1.6726,2,1,65531.5,56554.2,1695,0.31305999,2.0719109,136.32503,22.871902,127.825,322.577,5.7741,35.7184,32.8914,30.5556
1980-05-31 00:02:39,1,37.3125,11.9062,-29.1938,2.11359,2,1,64191.5,52913.6,1695,0.31306231,2.0724878,136.32133,22.876022,119.475,321.387,6.49902,34.0906,32.5534,29.5557
1980-05-31 00:03:19,1,37.56,12.62,-28.72,0.868869,2,1,67378.5,60859.2,1695,0.31306463,2.0730648,136.32156,22.880157,111.163,322.404,3.91052,32.0708,33.3517,31.6972
1980-05-31 00:04:00,1,37.6647,17.4882,-25.4941,1.82637,2,1,75027.3,61171.9,1695,0.31306696,2.0736418,136.31787,22.884277,125.763,320.123,3.71144,31.4528,35.1939,31.7785
1980-05-31 00:06:01,1,37.04,18.42,-20.2667,0.510773,2,1,73977.1,73461.5,1695,0.31307161,2.0747967,136.30659,22.892532,162.818,328.87,7.25258,29.0873,34.9467,34.8247
1980-05-31 00:07:22,-1,nan,nan,nan,nan,2,4,nan,nan,1695,0.31307393,2.0753736,136.299,22.896652,nan,nan,nan,nan,nan,nan
1980-05-31 00:08:02,1,37.53,18.54,-17.52,0.508035,2,1,80572.4,66622.7,1695,0.31307626,2.0759516,136.29922,22.900787,160.416,329.433,10.7987,32.0121,36.4713,33.1642
1980-05-31 00:08:42,1,37.7,14.1067,-21.44,1.70695,2,1,80491.9,62610.1,1695,0.31307626,2.0759516,136.29141,22.900787,155.64,330.694,11.7636,30.4295,36.4531,32.1499
1980-05-31 00:09:23,1,38.575,16.4125,-17.6687,1.5042,2,1,95916.1,65605.0,1695,0.31307852,2.0765285,136.28772,22.904907,172.485,328.388,7.93087,34.2894,39.7927,32.9099
1980-05-31 00:10:03,1,38.3933,18.5,-16.76,1.11849,2,1,95423.4,69791.2,1695,0.31308085,2.0771055,136.28793,22.909027,172.333,329.175,12.0957,30.0505,39.6904,33.9436
1980-05-31 00:10:45,1,38.85,15.1938,-19.6,0.794094,2,1,84647.0,68060.6,1695,0.31308085,2.0771055,136.28014,22.909042,155.086,329.131,9.7219,29.8282,37.3821,33.5201
1980-05-31 00:11:25,1,36.9933,15.5533,-22.22,4.31409,2,1,73803.0,68079.1,1695,0.31308317,2.0776834,136.28035,22.913162,152.037,329.085,7.9625,30.0348,34.9056,33.5247
1980-05-31 00:12:06,1,35.3412,15.3059,-25.2,2.8507,2,1,61869.4,63913.4,1695,0.3130855,2.0782604,136.27666,22.917282,144.198,328.106,12.462,39.4843,31.9592,32.4828
1980-05-31 00:12:46,1,25.6429,1.61429,-40.6429,1.09302,2,1,63577.2,57342.6,1695,0.3130855,2.0782604,136.27275,22.917282,169.353,307.968,-1.36916,42.0844,32.3973,30.7678
1980-05-31 00:13:27,1,26.7312,1.88125,-39.8687,1.80196,2,1,84588.5,68275.0,1695,0.31308782,2.0788374,136.26907,22.921417,154.944,311.614,2.2129,43.1504,37.3692,33.5729
1980-05-31 00:14:07,1,27.15,3.29286,-39.1643,0.699818,2,1,58929.1,61010.5,1695,0.31309015,2.0794144,136.26538,22.925537,155.868,311.533,-0.208566,42.1469,31.1905,31.7366
1980-05-31 00:14:48,1,27.14,1.71333,-37.86,0.908087,2,1,57024.0,60067.4,1695,0.31309015,2.0794144,136.26147,22.925537,173.137,311.424,-0.578852,40.7053,30.6822,31.4903
1980-05-31 00:15:28,1,27.1643,1.61429,-38.8286,1.15752,2,1,71953.6,67764.7,1695,0.31309247,2.0799923,136.25778,22.929657,169.745,307.996,-0.794968,40.9131,34.4655,33.4472
1980-05-31 00:16:09,1,28.5,1.02857,-38.1071,0.899121,2,1,60938.5,60455.4,1695,0.31309479,2.0805693,136.25801,22.933792,164.203,309.555,-1.50473,39.3034,31.7178,31.5919
1980-05-31 00:16:49,1,29.0071,1.16429,-37.3143,0.899943,2,1,70469.1,60670.1,1695,0.31309479,2.0805693,136.2502,22.933792,160.741,310.957,-0.736847,37.0721,34.1081,31.6479
1980-05-31 00:18:10,1,28.4714,-0.435714,-37.5571,1.04864,2,1,63539.8,63674.6,1695,0.31309938,2.0817232,136.24672,22.942032,165.709,310.67,-2.86887,38.5903,32.3878,32.4221
1980-05-31 00:18:51,1,26.4812,-4.9,-35.4562,1.69528,2,1,73423.7,73639.6,1695,0.31309938,2.0817242,136.23892,22.942047,169.22,309.734,7.73224,43.676,34.8158,34.8669
1980-05-31 00:19:31,1,27.0571,0.05,-34.8571,1.43834,2,1,66016.4,94245.5,1695,0.31310171,2.0823011,136.23914,22.946167,175.449,308.985,2.05843,41.9575,33.0129,39.4447
1980-05-31 00:20:12,1,26.0437,10.8625,-31.125,1.17651,2,1,60657.3,64693.8,1695,0.31310403,2.0828781,136.23544,22.950287,180.651,319.553,-3.1544,24.9586,31.6446,32.6805
1980-05-31 00:20:52,1,28.5267,12.6933,-28.9267,1.26143,2,1,54900.6,70546.4,1695,0.31310403,2.0828781,136.22763,22.950287,190.857,318.303,-0.404352,28.5701,30.1055,34.1268
1980-05-31 00:21:33,1,22.5938,11.725,-18.6375,3.96561,2,1,74816.3,77251.3,1695,0.31310636,2.0834551,136.22786,22.954422,253.32,322.086,3.44724,26.0407,35.1444,35.7117
1980-05-31 00:22:13,1,25.46,17.0333,-18.06,1.23249,2,1,62311.1,71127.6,1695,0.31310868,2.0840321,136.22417,22.958542,248.294,321.208,6.03472,29.0907,32.0731,34.2671
1980-05-31 00:22:54,1,24.5875,14.4812,-20.8813,3.05825,2,1,56371.4,69894.5,1695,0.31310868,2.084033,136.22026,22.958542,241.478,316.762,4.83684,28.8341,30.5062,33.9687
1980-05-31 00:23:34,1,23.4333,14.0067,-19.7733,4.56546,2,1,53593.1,84900.2,1695,0.31311101,2.08461,136.21657,22.962662,256.416,316.799,8.53809,38.9637,29.7449,37.438
1980-05-31 00:24:15,1,17.975,22.1125,-9.1,2.71302,2,1,61449.4,69159.7,1695,0.31311333,2.085187,136.21289,22.966797,262.675,323.326,4.6012,24.5474,31.8505,33.7897
1980-05-31 00:24:55,-1,nan,nan,nan,nan,1,4,nan,nan,1695,0.31311333,2.085187,136.20898,22.966797,nan,nan,nan,nan,nan,nan
1980-05-31 00:25:36,-1,nan,nan,nan,nan,1,4,nan,nan,1695,0.31311566,2.0857639,136.20529,22.970917,nan,nan,nan,nan,nan,nan
1980-05-31 00:26:16,1,7.065,27.92,5.885,4.59436,1,1,76454.2,88255.7,1695,0.31311792,2.0863409,136.20552,22.975052,206.962,332.177,2.25803,27.8208,35.527,38.1706
1980-05-31 00:26:57,1,3.78,30.904,11.308,3.28029,1,1,91525.8,86684.6,1695,0.31311798,2.0863419,136.19771,22.975052,218.368,328.958,2.96303,24.4445,38.8714,37.8293
1980-05-31 00:27:37,1,-1.6125,21.1542,9.02083,1.58253,1,1,71713.4,99408.5,1695,0.31312025,2.0869188,136.19792,22.979172,238.792,334.986,3.76123,19.5605,34.4079,40.5107
1980-05-31 00:28:18,1,-8.94,17.172,15.344,2.68322,1,1,71162.9,84456.3,1695,0.31312257,2.0874958,136.19423,22.983292,240.883,331.827,1.43732,22.1488,34.2756,37.34
1980-05-31 00:28:58,1,-7.12083,19.4458,15.35,1.41361,1,1,69561.1,86536.6,1695,0.31312257,2.0874958,136.18642,22.983292,238.019,332.424,-0.44445,21.9545,33.8876,37.797
1980-05-31 00:29:39,1,-6.068,20.808,14.504,3.16166,1,1,69846.1,83741.1,1695,0.3131249,2.0880728,136.18665,22.987427,234.052,332.39,2.23231,22.0555,33.957,37.1815
1980-05-31 00:30:19,-1,nan,nan,nan,nan,1,-3,nan,nan,1695,0.31312722,2.0886497,136.18295,22.991547,nan,335.441,3.57067,15.1588,nan,nan
1980-05-31 00:31:00,1,-6.108,20.264,12.16,6.44415,1,1,67235.1,84737.1,1695,0.31312954,2.0892267,136.18317,22.995667,249.533,332.732,3.30649,20.9899,33.3162,37.402
1980-05-31 00:31:40,-1,nan,nan,nan,nan,1,-3,nan,nan,1695,0.31312954,2.0892277,136.17537,22.995682,nan,335.269,3.59126,18.6425,nan,nan
1980-05-31 00:32:21,1,3.432,15.724,5.32907e-17,7.92798,1,1,90175.5,78574.8,1695,0.31313187,2.0898046,136.17168,22.999802,254.415,330.139,-3.54409,26.7838,38.5836,36.0163
1980-05-31 00:33:01,1,2.05833,19.9417,3.1625,3.33137,1,1,67231.6,82745.3,1695,0.31313419,2.0903816,136.17189,23.003922,249.787,325.684,-1.15728,31.8985,33.3154,36.9598
1980-05-31 00:33:42,1,-0.076,20.24,7.036,1.79737,1,1,73320.5,86750.9,1695,0.31313419,2.0903816,136.16408,23.003922,262.666,328.74,0.614576,27.5309,34.7913,37.8438
1980-05-31 00:35:03,1,8.0,16.1789,-6.48421,4.94952,1,1,65404.6,70994.6,1695,0.31313878,2.0915356,136.16061,23.012177,253.54,330.017,3.31367,30.7451,32.8596,34.235
1980-05-31 00:35:43,1,17.1458,-6.5625,-18.1542,1.78227,1,1,82948.3,88178.3,1695,0.31313878,2.0915365,136.15671,23.012177,246.875,336.019,8.95111,24.413,37.0051,38.1539
1980-05-31 00:39:46,1,21.6133,-1.93333,-15.66,2.57406,2,1,56590.7,78550.5,1695,0.31314808,2.0938454,136.13416,23.028687,267.958,329.501,6.29131,27.2266,30.5654,36.0108
1980-05-31 00:40:27,1,17.7188,-1.96875,-16.9688,1.54704,2,1,71103.9,71271.0,1695,0.31315041,2.0944223,136.13046,23.032806,294.223,325.351,5.22131,24.3855,34.2613,34.3016
1980-05-31 00:41:07,1,18.9933,-0.353333,-17.7333,2.15252,2,1,71064.8,75925.5,1695,0.31315273,2.0949993,136.13068,23.036926,302.755,325.541,5.08669,22.7927,34.2519,35.404
1980-05-31 00:41:48,1,20.2562,-0.03125,-18.475,1.24408,2,1,62496.8,76099.2,1695,0.31315273,2.0949993,136.12286,23.036926,284.151,323.245,5.50402,25.0075,32.1208,35.4444
1980-05-31 00:42:28,1,21.8062,-0.64375,-16.625,0.690052,2,1,68769.1,71902.4,1695,0.31315506,2.0955763,136.12309,23.041061,289.569,324.343,5.62682,21.8995,33.6942,34.4532
1980-05-31 00:43:09,1,22.5063,-0.05625,-16.9312,0.87404,2,1,59402.4,79234.1,1695,0.31315732,2.0961533,136.1194,23.045181,268.036,321.992,5.14506,24.1988,31.3155,36.1671
1980-05-31 00:43:49,1,22.1933,-0.0933333,-16.64,0.907549,2,1,58658.1,73626.3,1695,0.31315738,2.0961542,136.11159,23.045181,269.009,325.954,8.68121,24.2974,31.1187,34.8638
1980-05-31 00:44:30,1,22.8687,-0.78125,-18.4187,1.03872,2,1,55529.0,74984.2,1695,0.31315964,2.0967312,136.11182,23.049316,247.495,323.568,8.22678,27.3681,30.2773,35.1838
1980-05-31 00:45:10,1,20.9375,1.74375,-18.0375,1.85429,2,1,69687.8,71704.5,1695,0.31316197,2.0973082,136.10812,23.053436,272.607,327.977,6.6672,25.9644,33.9185,34.4058
1980-05-31 00:48:18,1,1.175,21.45,25.8,0.435172,2,1,63967.4,56217.8,1695,0.31316894,2.09904,136.09315,23.065811,279.822,335.69,6.23153,12.1649,32.4965,30.4646
1980-05-31 00:48:33,1,0.8875,21.6375,25.8875,0.533415,2,1,70998.0,58627.1,1695,0.3130945,2.0441327,136.02048,22.99704,302.717,336.339,5.05363,12.0229,34.2358,31.1105
1980-05-31 00:48:59,1,0.985714,20.3286,19.4,1.65628,2,1,67170.4,58470.9,1695,0.31316894,2.09904,136.08534,23.065811,307.752,335.516,6.65344,12.2285,33.3002,31.069
1980-05-31 00:49:13,1,0.657143,19.7571,18.7,0.559883,2,1,91599.2,59780.3,1695,0.31317127,2.099617,136.08946,23.069931,301.021,336.904,-0.0867615,9.03535,38.8869,31.415
1980-05-31 00:49:54,1,2.1875,21.05,18.15,1.05171,2,1,88698.2,58789.4,1695,0.31317127,2.099617,136.08167,23.069946,280.814,336.804,3.52703,8.80748,38.2662,31.1535
1980-05-31 00:50:34,1,2.85714,21.8857,19.5714,0.8,2,1,82713.4,57263.3,1695,0.31317359,2.100194,136.08188,23.074066,277.66,338.327,5.46719,9.40726,36.9527,30.7465
1980-05-31 00:51:15,1,0.2,23.95,23.2,0.526783,2,1,63236.4,56780.7,1695,0.31317592,2.100771,136.07819,23.078186,290.283,338.088,7.24844,9.74079,32.3103,30.6167
1980-05-31 00:51:55,1,-1.32857,24.1286,24.2143,0.430472,2,1,75276.2,60520.8,1695,0.31317592,2.1007719,136.07037,23.078186,320.486,335.702,8.85087,11.8412,35.2522,31.609
1980-05-31 00:52:36,1,-0.2875,24.7625,24.3125,1.85325,2,1,61660.8,58657.1,1695,0.31317818,2.1013489,136.0706,23.082321,292.967,337.821,6.89377,11.2076,31.9053,31.1185
1980-05-31 00:53:16,1,-1.52857,25.4286,23.6,1.0232,2,1,69413.9,57445.9,1695,0.31318051,2.1019258,136.06691,23.086441,302.517,336.464,8.16816,11.6229,33.8518,30.7955
1980-05-31 00:53:57,1,-1.2,26.3625,23.6625,0.62425,2,1,67393.2,58677.4,1695,0.31318051,2.1019258,136.063,23.086441,294.699,337.375,8.42233,9.80804,33.3554,31.1239
1980-05-31 00:54:37,1,0.114286,26.3571,23.5286,0.465986,2,1,69258.7,60248.9,1695,0.31318283,2.1025028,136.05931,23.090561,306.839,338.788,7.8498,9.94152,33.8139,31.5379
1980-05-31 00:55:18,1,-1.2875,26.8125,23.025,0.417208,2,1,58338.2,60496.8,1695,0.31318516,2.1030798,136.05563,23.094696,295.539,338.822,6.18202,9.79433,31.0338,31.6027
1980-05-31 00:55:58,1,-0.228571,27.0857,23.5143,0.651529,2,1,69191.2,58230.6,1695,0.31318516,2.1030807,136.05173,23.094696,285.422,338.186,5.00973,10.7082,33.7974,31.0051
1980-05-31 00:56:39,1,0.775,26.725,22.4,0.486056,2,1,66699.4,56283.0,1695,0.31318748,2.1036577,136.04803,23.098816,292.015,339.994,6.96079,11.1992,33.1832,30.4822
1980-05-31 00:57:19,1,-1.04286,27.6714,20.9571,1.53849,2,1,66586.2,61751.4,1695,0.3131898,2.1042347,136.04825,23.102936,296.646,337.941,5.63894,9.88165,33.1551,31.9287
1980-05-31 00:58:00,1,-2.5625,27.9,19.75,0.399805,2,1,58965.7,58894.2,1695,0.31319213,2.1048117,136.04457,23.107071,288.998,335.564,6.87108,7.32304,31.2002,31.1813
1980-05-31 00:58:40,1,0.728571,28.1429,20.8286,0.252336,2,1,67035.2,60475.7,1695,0.31319213,2.1048117,136.04066,23.107071,270.847,335.523,5.44644,5.72524,33.2667,31.5972
1980-05-31 00:59:21,1,0.85,28.1375,19.65,0.717526,2,1,71165.5,63210.6,1695,0.31319445,2.1053886,136.03697,23.111191,293.232,335.412,7.36127,7.80356,34.2762,32.3037
1980-05-31 01:00:01,1,-0.214286,28.8571,18.7714,0.396412,2,1,64249.2,60283.9,1695,0.31319678,2.1059666,136.03329,23.115326,265.075,334.589,9.57966,6.024,32.5681,31.547
1980-05-31 01:00:42,1,0.325,28.35,17.45,0.34187,2,1,65938.1,65275.2,1695,0.31319678,2.1059666,136.02939,23.115326,296.305,336.202,7.46345,5.37273,32.9933,32.8271
1980-05-31 01:01:22,1,-0.157143,26.9143,19.2857,0.423301,2,1,65966.5,60577.3,1695,0.3131991,2.1065426,136.0257,23.119446,300.464,335.917,6.67667,4.46159,33.0004,31.6237
1980-05-31 01:02:03,1,-0.625,26.7,19.45,0.875714,2,1,56937.4,58183.8,1695,0.31320149,2.1071177,136.02591,23.123566,305.946,334.508,5.80257,7.34698,30.6589,30.9927
1980-05-31 01:02:43,1,-0.0571429,29.0714,17.4571,1.74964,2,1,64745.0,62677.3,1695,0.31320149,2.1071186,136.0181,23.123566,294.096,336.196,7.07868,6.75344,32.6935,32.1672
1980-05-31 01:03:24,1,0.2375,27.8125,16.7875,0.457746,2,1,72940.5,62638.1,1695,0.31320381,2.1076937,136.0144,23.127686,282.273,334.885,4.23456,8.58225,34.701,32.1571
1980-05-31 01:04:04,1,0.814286,26.8857,14.9286,1.0192,2,1,72713.4,61073.1,1695,0.3132062,2.1082697,136.01462,23.131805,286.021,334.531,3.77965,5.19266,34.6469,31.7529
1980-05-31 01:04:45,1,4.4875,29.5875,14.45,1.02332,2,1,59097.8,60764.8,1695,0.3132062,2.1082697,136.00681,23.131805,289.69,336.606,6.17587,7.99865,31.2351,31.6726
1980-05-31 01:05:25,1,5.42857,28.5143,12.6714,1.38033,2,1,73967.6,62986.4,1695,0.31320858,2.1088457,136.00702,23.135925,298.885,336.575,3.02133,4.57332,34.9445,32.2464
1980-05-31 01:06:06,1,4.8625,22.675,10.25,0.37312,2,1,72788.3,60962.2,1695,0.3132109,2.1094208,136.00333,23.140045,293.648,337.595,5.13455,6.20357,34.6648,31.724
1980-05-31 01:06:46,1,2.57143,24.4,14.4571,1.60941,2,1,60998.9,69791.9,1695,0.3132109,2.1094217,135.99551,23.140045,298.987,335.19,4.73494,10.5953,31.7336,33.9438
1980-05-31 01:07:27,1,0.825,24.5375,17.35,1.11208,2,1,60931.6,58984.6,1695,0.31321329,2.1099968,135.99573,23.144165,301.099,335.546,5.45382,12.9701,31.7161,31.2052
1980-05-31 01:08:07,1,4.32857,26.6714,11.0286,1.62581,2,1,57301.8,61485.2,1695,0.31321561,2.1105728,135.99203,23.148285,303.039,336.846,2.43096,8.92249,30.7569,31.8598
1980-05-31 01:08:48,1,4.0875,26.1625,12.1625,0.757153,2,1,56034.4,60201.5,1695,0.31321561,2.1105738,135.98814,23.1483,311.585,335.4,4.21468,9.04995,30.4148,31.5255
1980-05-31 01:09:28,1,1.84286,24.6571,17.8,1.75883,2,1,68091.7,68750.1,1695,0.313218,2.1111488,135.98445,23.15242,296.706,337.861,6.25394,5.59232,33.5278,33.6895
1980-05-31 01:10:09,1,0.1,22.225,18.4375,0.741093,2,1,58368.2,66102.4,1695,0.31322038,2.1117249,135.98466,23.15654,298.539,336.927,2.60229,10.4334,31.0417,33.0344
1980-05-31 01:10:49,1,-1.05714,21.6857,18.6286,0.534522,2,1,64694.7,69490.0,1695,0.31322038,2.1117249,135.97685,23.15654,315.212,336.994,2.58693,13.9446,32.6808,33.8703
1980-05-31 01:11:30,1,0.1375,21.2625,17.9,0.782424,2,1,61027.3,61887.9,1695,0.31322271,2.1123009,135.97316,23.16066,288.811,336.506,2.1684,13.2697,31.7409,31.964
1980-05-31 01:12:10,1,2.15714,21.3143,15.2143,0.477237,2,1,62728.8,68052.8,1695,0.31322509,2.1128759,135.97337,23.16478,317.868,339.561,4.02362,10.9878,32.1804,33.5182
1980-05-31 01:12:51,1,2.6625,20.925,12.8375,1.11538,2,1,76617.6,57208.0,1695,0.31322509,2.1128769,135.96556,23.16478,289.189,338.716,2.20089,8.13224,35.565,30.7317
1980-05-31 01:13:31,1,0.971429,17.9,15.6429,1.32187,2,1,63554.0,56667.6,1695,0.31322747,2.113452,135.96577,23.1689,304.916,336.181,-0.554657,12.4762,32.3914,30.5862
1980-05-31 01:14:12,1,2.65,18.675,14.95,0.83479,2,1,71112.3,64806.2,1695,0.3132298,2.114028,135.96208,23.173019,320.72,340.045,1.07794,12.6581,34.2634,32.7089
1980-05-31 01:14:52,1,1.61429,14.5571,19.3429,2.44139,2,1,62711.3,67296.9,1695,0.3132298,2.114028,135.95427,23.173019,318.27,340.886,-1.57189,15.5221,32.1759,33.3316
1980-05-31 01:15:33,1,-5.17778,18.0889,16.7444,1.23408,2,1,55394.3,67875.5,1695,0.31323218,2.114604,135.95448,23.177139,310.321,336.091,3.06788,12.8988,30.2406,33.4745
1980-05-31 01:16:13,1,-0.328571,19.7,15.6857,2.13885,2,1,58900.5,69336.0,1695,0.31323451,2.11518,135.95079,23.181259,317.992,339.306,0.049445,12.6471,31.183,33.8327
1980-05-31 01:16:54,1,0.777778,14.3333,15.3333,4.83845,2,1,62278.6,63388.7,1695,0.31323451,2.11518,135.94688,23.181259,294.541,341.32,-5.31042,15.3228,32.0647,32.3492
1980-05-31 01:17:34,1,-10.5714,12.9429,6.22857,2.41796,2,1,67062.1,65213.7,1695,0.31323689,2.115756,135.94319,23.185379,328.656,334.632,2.52863,10.2133,33.2733,32.8116
1980-05-31 01:18:15,1,-8.1625,14.225,14.6625,1.45054,2,1,70209.7,71270.0,1695,0.31323928,2.1163311,135.9395,23.189499,307.78,336.495,-0.737012,11.2221,34.0452,34.3013
1980-05-31 01:18:55,1,-4.85714,14.2429,14.4857,0.385979,2,1,66300.4,63075.3,1695,0.31323928,2.1163321,135.93561,23.189514,289.716,338.107,-0.285407,11.3155,33.0838,32.2692
1980-05-31 01:19:36,1,-4.25,13.5625,15.5375,1.24084,2,1,67323.0,63971.1,1695,0.3132416,2.1169071,135.93192,23.193634,303.299,337.36,-1.3769,13.2942,33.338,32.4975
1980-05-31 01:20:16,1,-5.225,15.7,14.275,1.90361,2,1,70078.0,66919.8,1695,0.31324399,2.1174831,135.93213,23.197754,300.087,338.364,-2.748,11.7644,34.0133,33.238
1980-05-31 01:20:57,1,-5.5875,14.5625,11.8875,1.68212,2,1,62167.2,59156.9,1695,0.31324399,2.1174831,135.92432,23.197754,312.644,335.653,3.38883,10.297,32.036,31.2508
1980-05-31 01:21:37,1,-6.0125,18.275,8.7,2.01816,2,1,66873.8,65820.5,1695,0.31324631,2.1180592,135.92453,23.201874,317.028,338.977,1.80694,12.0954,33.2266,32.9639
1980-05-31 01:22:18,1,-5.7125,15.175,9.9375,3.7597,2,1,59184.4,63185.7,1695,0.31324869,2.1186352,135.92084,23.205994,328.115,338.292,4.03176,14.1999,31.258,32.2974
1980-05-31 01:22:58,1,-1.0625,12.8875,14.45,1.70321,2,1,68036.5,63303.2,1695,0.31324869,2.1186352,135.91302,23.205994,305.798,338.618,-0.335653,10.1517,33.5142,32.3274
1980-05-31 01:23:39,1,-2.625,14.3,13.3875,1.41791,2,1,60758.7,63624.6,1695,0.31325108,2.1192112,135.91324,23.210114,306.681,336.959,2.42362,10.7252,31.671,32.4094
1980-05-31 01:24:19,1,-0.657143,15.2286,14.0143,1.19523,2,1,58982.4,65577.1,1695,0.3132534,2.1197863,135.90955,23.214233,310.44,333.233,2.96099,9.36543,31.2046,32.9029
1980-05-31 01:25:00,1,1.5875,13.75,14.3375,1.25835,2,1,66960.1,62666.4,1695,0.31325579,2.1203623,135.90976,23.218353,304.866,333.23,1.38781,10.6061,33.248,32.1644
1980-05-31 01:25:40,-1,nan,nan,nan,nan,1,4,nan,nan,1695,0.31325579,2.1203623,135.90195,23.218353,nan,nan,nan,nan,nan,nan
1980-05-31 01:26:21,1,-0.00909091,15.6091,12.1818,1.52895,1,1,84294.3,79719.1,1695,0.31325817,2.1209383,135.89825,23.222473,246.772,334.756,-0.860341,16.5375,37.3041,36.2776
1980-05-31 01:27:01,1,-4.35,14.0167,12.7583,3.48253,1,1,84065.8,84288.6,1695,0.3132605,2.1215143,135.89847,23.226593,243.862,332.993,-1.8544,17.0787,37.2535,37.3029
1980-05-31 01:27:42,1,-1.45833,14.6417,12.8417,1.54724,1,1,83524.5,85086.1,1695,0.3132605,2.1215143,135.89066,23.226593,240.533,335.915,-2.49998,15.9274,37.1334,37.4789
1980-05-31 01:28:22,1,-0.592308,11.2846,9.45385,1.0996,1,1,100533.0,95596.3,1695,0.31326288,2.1220903,135.89087,23.230713,254.291,336.496,-4.3651,13.0367,40.7391,39.7263
1980-05-31 01:29:03,1,-1.275,11.525,7.575,1.46991,1,1,110621.0,89968.8,1695,0.3132652,2.1226654,135.88718,23.234833,252.458,337.969,-6.36496,13.6382,42.7344,38.5393
1980-05-31 01:29:43,1,-2.60769,11.3769,7.29231,0.974345,1,1,111208.0,95662.7,1695,0.3132652,2.1226664,135.87938,23.234848,258.148,334.683,-4.69775,12.3132,42.8476,39.7401
1980-05-31 01:30:24,1,-2.69167,9.8,8.19167,0.80614,1,1,106688.0,99894.8,1695,0.31326759,2.1232414,135.87959,23.238968,245.969,335.161,-6.42108,8.38216,41.9677,40.6097
1980-05-31 01:31:04,1,-2.29231,10.8538,7.66154,0.696823,1,1,107516.0,102715.0,1695,0.31326997,2.1238174,135.8759,23.243088,255.697,334.596,-6.74146,9.01901,42.1302,41.179
1980-05-31 01:31:45,1,-2.45833,10.5583,7.4,1.29545,1,1,109346.0,99863.0,1695,0.31326997,2.1238174,135.87199,23.243088,247.897,334.875,-8.03805,9.86803,42.4873,40.6032
1980-05-31 01:32:25,1,-3.76923,7.71538,5.71538,1.18716,1,1,116676.0,107277.0,1695,0.3132723,2.1243935,135.8683,23.247208,259.576,333.594,-7.54589,9.97556,43.8883,42.0834
1980-05-31 01:33:06,1,-4.2,6.725,6.35833,0.880893,1,1,107807.0,106350.0,1695,0.31327468,2.1249695,135.86852,23.251328,252.504,333.981,-8.39462,11.2009,42.1873,41.9012
1980-05-31 01:33:46,1,-3.85385,7.58462,2.13077,1.41739,1,1,118423.0,107686.0,1695,0.31327468,2.1249695,135.8607,23.251328,263.301,332.889,-8.99877,9.00148,44.2156,42.1636
1980-05-31 01:34:27,1,-6.725,8.425,2.4,1.04103,1,1,113109.0,106176.0,1695,0.31327701,2.1255455,135.85701,23.255447,254.116,332.882,-10.4103,9.28626,43.2122,41.867
1980-05-31 01:35:07,1,-6.92308,9.79231,3.76923,3.39547,1,1,112141.0,96799.2,1695,0.31327939,2.1261206,135.85722,23.259567,268.904,332.801,-9.58925,8.44521,43.027,39.9755
1980-05-31 01:35:48,1,-3.625,8.20833,6.88333,2.51344,1,1,98219.0,84864.2,1695,0.31327939,2.1261215,135.84941,23.259567,272.896,333.85,-9.97914,12.5258,40.2676,37.43
1980-05-31 01:36:28,-1,nan,nan,nan,nan,1,4,nan,nan,1695,0.31328177,2.1266966,135.84962,23.263687,nan,nan,nan,nan,nan,nan
1980-05-31 01:37:09,-1,nan,nan,nan,nan,2,4,nan,nan,1695,0.3132841,2.1272726,135.84593,23.267807,nan,nan,nan,nan,nan,nan
1980-05-31 01:37:49,1,-3.75714,6.18571,2.01429,0.980837,2,1,59153.6,57851.3,1695,0.3132841,2.1272726,135.83812,23.267807,357.326,333.85,-7.92152,6.59273,31.2499,30.904
1980-05-31 01:38:30,1,-5.7375,5.7125,3.9375,1.07274,2,1,62918.3,67151.0,1695,0.31328648,2.1278486,135.83833,23.271927,377.739,334.816,-5.95986,8.30483,32.229,33.2954
1980-05-31 01:39:10,1,-5.38571,2.02857,4.3,0.713428,2,1,61433.9,62688.3,1695,0.31328887,2.1284237,135.83464,23.276047,355.8,333.317,-7.13052,9.89698,31.8465,32.17
1980-05-31 01:39:51,1,-2.925,2.5625,2.8125,0.918048,2,1,58450.4,65127.1,1695,0.31328887,2.1284246,135.83075,23.276062,376.023,333.519,-6.06973,8.65448,31.0636,32.7898
1980-05-31 01:40:31,1,-3.95714,1.97143,2.54286,1.02738,2,1,59826.2,61395.6,1695,0.31329119,2.1289997,135.82706,23.280182,357.305,333.394,-5.5122,8.4907,31.4271,31.8366
1980-05-31 01:41:12,1,-3.15,-1.05,2.025,1.49311,2,1,61372.0,61478.2,1695,0.31329358,2.1295757,135.82336,23.284302,365.149,331.084,-6.08537,7.47702,31.8305,31.858
1980-05-31 01:41:52,1,-3.18571,0.4,1.41429,1.07684,2,1,61560.5,62028.2,1695,0.31329358,2.1295757,135.81946,23.284302,348.322,331.859,-5.90256,6.50913,31.8793,32.0002
1980-05-31 01:42:33,-1,nan,nan,nan,nan,2,-3,nan,nan,1695,0.3132959,2.1301517,135.81577,23.288422,nan,331.184,-6.50578,5.73634,nan,nan
1980-05-31 01:43:13,1,-3.41429,-4.78571,-0.742857,1.40785,2,1,74899.9,56624.9,1695,0.31329829,2.1307278,135.81598,23.292542,372.871,332.448,-5.07848,7.15989,35.164,30.5747
1980-05-31 01:43:54,1,-0.825,-5.775,1.1625,1.03976,2,1,73967.7,58371.2,1695,0.31329829,2.1307278,135.80817,23.292542,361.213,333.004,-3.90388,5.84056,34.9445,31.0425
1980-05-31 01:44:34,1,-0.0285714,5.17143,-0.942857,2.52885,2,1,93714.0,82189.0,1695,0.31330067,2.1313038,135.80838,23.296661,285.229,326.933,-12.904,3.90345,39.3333,36.8353
1980-05-31 01:45:15,-1,nan,nan,nan,nan,2,-3,nan,nan,1695,0.31330299,2.1318789,135.80469,23.300781,nan,324.133,-12.3014,0.445892,nan,nan
1980-05-31 01:45:55,1,4.52857,3.62857,3.25714,3.57503,2,1,106469.0,106169.0,1695,0.31330299,2.1318798,135.79688,23.300781,290.544,327.002,-10.8769,-3.33509,41.9247,41.8655